Tracking 34151 objects as of 20-May-2026
HD Live streaming from Space Station
objects crossing your sky now

COSMOS 1433

Track COSMOS 1433 now!
10-day predictions
COSMOS 1433 is classified as:


NORAD ID: 13765
Int'l Code: 1983-002E
Perigee: 1,452.7 km
Apogee: 1,474.2 km
Inclination: 74.0 °
Period: 115.0 minutes
Semi major axis: 7834 km
RCS: 0.733 m2 (medium)
Launch date: January 19, 1983
Source: Commonwealth of Independent States (former USSR) (CIS)
Launch site: PLESETSK MISSILE AND SPACE COMPLEX (PKMTR)
Your satellite tracking list
Your tracking list is empty




NASA's NSSDC Master Catalog

Two Line Element Set (TLE):
1 13765U 83002E   26140.37383176 -.00000010  00000-0  40287-4 0  9993
2 13765  74.0233 290.6214 0013711   7.1732  17.4457 12.51950264980639
Source of the keplerian elements: AFSPC